loading
DOY 175 | 2024-06-23T18:02:46Z
Showing default

OPS 6582 (TRANSIT 5E-5), 959

Orbit data source: Space-Track

OPS 6582 (TRANSIT 5E-5), 959 is a payload satellite owned by USN BuWeps (US) in LEO that was launched on Sun, 13 Dec 1964 UTC via a Thor Ablestar launch vehicle from the Air Force Western Test Range (AFWTR). Payloads include a variety of satellites, spacecraft, and rockets equipped with specific instruments for various scientific and technological missions. These include communications satellites like Starlink; space stations such as the ISS; scientific satellites like the Hubble; Earth observation satellites from companies like Planet Labs, Umbra, and HawkEye 360; GPS; miniature CubeSats for education and research; and military/defense satellites.

Loading next visibility...
Loading greatness...
OPS 6582 (TRANSIT 5E-5) details
NORAD ID959
COSPAR ID
1964-083C
Orbit
LEO
Last TLE update18 hours ago
Origin
Flag of USUSN BuWeps (US)
ManufacturerAPL
BusTransit 5
MotorUnknown
Mass77 kg wet, 77 kg dry
Launch date (UTC)
1964-12-13 (60 years ago)
Launch vehicle
Thor Ablestar
Launch site
Air Force Western Test Range (AFWTR)
Object type
Payload
Rocket body
Debris
Radar Cross Section1.6 m², Large (>1 m²)
Predictive object data (real-time)
Latitude-6.16522°
Longitude97.71666°
Altitude1,033.909 km
Speed7.334 km/s
Apparent Right ascension21h 52m 50s
Apparent Declination-33° 17' 16"
Sunlit
Object is in daylight
Predictive observer data (real-time)
Local Sidereal Time05:11:53
Azimuth253.061° W
Elevation-34.677°
Doppler factor1
Orbital elements
Apogee1,054.69 km
Perigee995.567 km
Semi-major axis7,403.266 km
Eccentricity0.0039931
Inclination89.994°
RAAN186.9363°
Arg. of periapsis282.0319°
True anomaly146.72945°
Mean anomaly146.4778°
Mean motion3.40728 °/min
BSTAR0.00026678
Period105.66 mins
Definitive object data (Epoch: 2024-06-22T23:50:17.086Z)
Latitude68.83455°
Longitude-82.2681°
Altitude1,064.793 km
Speed7.314 km/s
True Right ascension12h 27m 48s
True Declination68° 43' 24"
Sunlit
Object was in daylight at TLE epoch
TLE from 18 hours ago
0 OPS 6582 (TRANSIT 5E-5)
1 00959U 64083C   24174.99325332  .00000216  00000-0  26678-3 0  9999
2 00959  89.9940 186.9363 0039931 282.0319 146.4778 13.62092714951603
Epoch: 2024-06-22T23:50Z
No data available

OPS 6582 (TRANSIT 5E-5) Visibility forecast

Observer location: 39.9160978°, -105.1181434, 0m alt.

OPS 6582 (TRANSIT 5E-5) is not visible in the next 10 days
Span
Click to sort rows by Start time (UTC) header in descending order
Start Az.
Max El. time (UTC)
Max El. Az.
Max El.
End time (UTC)
End Az.